Regional Weather Roundup
Issued by NWS Wilmington, NC

Home | Current Version | Previous Version | Text Only | Print | Product List | Glossary On
Versions: 1 2 3 4 5 6 7 8 9 10 11 12 13 14 15 16 17 18 19 20 21 22 23 24 25 26 27 28 29 30 31 32 33 34 35 36 37 38 39 40 41 42 43 44 45 46 47 48 49 50
000
ASUS42 KILM 282012
RWRILM
RWRILM
REGIONAL HOURLY WEATHER ROUNDUP
NATIONAL WEATHER SERVICE WILMINGTON NC
400 PM EDT TUE MAR 28 2017

NOTE: "FAIR" INDICATES FEW OR NO CLOUDS BELOW 12,000 FEET WITH NO
SIGNIFICANT WEATHER AND/OR OBSTRUCTIONS TO VISIBILITY.

...............WFO WILMINGTON COUNTY WARNING AREA...............

......COASTAL NC AND SC COUNTIES......

CITY           SKY/WX    TMP DP  RH WIND       PRES   REMARKS
WILMINGTON     MOSUNNY   80  59  48 SW15G25   29.87F
N MYRTLE BEACH MOSUNNY   69  61  75 SW20      29.89F
MYRTLE BEACH   PTSUNNY   73  61  64 S17       29.90F

......INLAND NC AND SC COUNTIES.......

CITY           SKY/WX    TMP DP  RH WIND       PRES   REMARKS
LUMBERTON      SUNNY     81  59  47 W15       29.86F
ELIZABETHTOWN  MOSUNNY   82  59  46 W12       29.87F
WHITEVILLE     MOSUNNY   82  57  42 SW8       29.87F
FLORENCE       MOSUNNY   82  56  40 W10       29.87F
DARLINGTON     PTSUNNY   81  59  47 NW10G16   29.87F
KINGSTREE      PTSUNNY   82  54  36 SW9G17    29.89F
HARTSVILLE     FAIR      79  54  41 W6G16     29.87F
BENNETTSVILLE  FAIR      81  59  47 SW8       29.86F
CONWAY         PTSUNNY   81  57  44 SW7       29.89F
GEORGETOWN     FAIR      79  61  53 S15       29.90F
MARION         PTSUNNY   82  57  42 SW10G18   29.88F

....................REST OF NORTH CAROLINA......................

.........EASTERN NC.........

CITY           SKY/WX    TMP DP  RH WIND       PRES   REMARKS
CAPE HATTERAS  CLOUDY    66  59  78 NW6       29.92F
JACKSONVILLE   MOSUNNY   79  61  53 SW12G17   29.86F
MOREHEAD CITY  CLOUDY    70  63  78 S14       29.89F
KENANSVILLE    MOSUNNY   79  61  53 W8        29.86F
NEW BERN       CLOUDY    73  63  70 S13       29.88F
ELIZABETH CITY MOSUNNY   69  59  70 SW16      29.86F

.........CENTRAL NC.........

CITY           SKY/WX    TMP DP  RH WIND       PRES   REMARKS
RALEIGH DURHAM MOSUNNY   73  61  65 W5        29.87F
ROCKY MOUNT    MOSUNNY   76  60  57 SW9       29.86F
ROANOKE RAPIDS NOT AVBL
FAYETTEVILLE   PTSUNNY   79  58  48 W7        29.85F
HOFFMAN        PTSUNNY   79  57  47 NW3       29.86S

.........WESTERN NC.........

CITY           SKY/WX    TMP DP  RH WIND       PRES   REMARKS
CHARLOTTE      PTSUNNY   78  52  40 N8        29.89F
GREENSBORO     PTSUNNY   73  54  51 W15       29.88F
HICKORY        NOT AVBL
BOONE          NOT AVBL
ASHEVILLE      NOT AVBL

.....................REST OF SOUTH CAROLINA.....................

.........EASTERN SC.........

CITY           SKY/WX    TMP DP  RH WIND       PRES   REMARKS
CHARLESTON     PTSUNNY   83  60  45 S17       29.90F
BEAUFORT MCAS  MOSUNNY   87  57  35 W12G22    29.91F
HILTON HEAD    MOSUNNY   77  63  61 S15       29.94F

.........CENTRAL SC.........

CITY           SKY/WX    TMP DP  RH WIND       PRES   REMARKS
COLUMBIA       MOSUNNY   83  58  42 W16       29.89F
ORANGEBURG     PTSUNNY   82  58  43 NW15G23   29.91F
SUMTER SHAW    MOSUNNY   83  56  38 W10       29.87S

.........WESTERN SC.........

CITY           SKY/WX    TMP DP  RH WIND       PRES   REMARKS
GREENVILLE     NOT AVBL
ROCK HILL      PTSUNNY   77  53  43 NW8       29.89F
ANDERSON       MOSUNNY   77  57  50 W8        29.91F
CLEMSON        NOT AVBL
GREENWOOD      MOSUNNY   82  54  37 SW14G24   29.91F


...................COASTAL AND OFFSHORE REPORTS..................

................LOCAL PIERS AND NC RESERVE................


STATION/POSITION TIME  SKY/WX   TEMP    WIND        PRES    VSBY
                                AIR SEA DIR/SP/G
                 (UTC)          (F)     (DEG/KT/KT) (MB)    (MI)
JOHNY MRCER PIER 1942            65 59  190/ 19/ 20 1010.7F
NC RESRV MASNBRO 1845            78     230/  6     1012.0
OCEAN CREST PIER NOT AVBL
SPRINGMAID  PIER 1948                               1011.7F


................COASTAL AND OFFSHORE BUOYS................


STATION/POSITION TIME  SKY/WX   TEMP    WIND        PRES    VSBY
                                AIR SEA DIR/SP/G
                 (UTC)          (F)     (DEG/KT/KT) (MB)    (MI)
DIMNDSHOAL 41025 NOT AVBL
CAPE LOOKOUT     2000            70     210/ 10/ 13 1012.3F
ONSLOW BAY 41036 NOT AVBL
ONSLOW BAY 41064 NOT AVBL
ONSLOW BAY 41159 NOT AVBL
MASNBO INL 41110 NOT AVBL
WILM HARBR 41108 NOT AVBL
27SE WRITB 41037 NOT AVBL
FRYING PAN 41013 NOT AVBL
SUNST NRSH 41024 NOT AVBL
CAPRS NRSH 41029 NOT AVBL
EDISTO     41004 NOT AVBL


..........OFFSHORE BUOYS BEYOND 100 NM OFFSHORE...........
.....IN A TRIANGLE---HAT TO BERMUDA TO BAHAMAS TO HAT.....


STATION/POSITION TIME  SKY/WX   TEMP    WIND        PRES    VSBY
                                AIR SEA DIR/SP/G
                 (UTC)          (F)     (DEG/KT/KT) (MB)    (MI)
150E HAT   41001 NOT AVBL
W BERMUDA  41048 NOT AVBL
ATLANTIC S 41049 NOT AVBL
E BAHAMAS  41046 NOT AVBL
NE BAHAMAS 41047 NOT AVBL
120E CANVRL41010 NOT AVBL

END



USA.gov is the U.S. government's official web portal to all federal, state and local government web resources and services.